Temperature
23 21 21 21 22 23 24 23 22 23 24 24 24 23 23 23 23 22 22 21 21 22 22 22 21 21 21 20 20 20 19 19 19 18 18 18 18 18 18 18 18 18 18 18
21 21 22 22 23 23 23 23 22 23 24 24 23 23 22 22 22 22 22 22 22 22 22 21 21 21 21 20 20 20 19 19 19 18 18 18 18 18 18 18 18 18 18 18
22 22 23 23 23 23 23 23 23 24 24 23 24 23 22 22 22 22 22 22 22 22 22 22 21 21 21 21 20 20 20 19 19 19 18 18 17 18 17 18 18 18 18 18
22 22 23 24 23 23 22 23 23 24 23 22 23 22 22 21 21 21 21 22 22 22 22 22 21 21 21 21 20 20 20 19 19 18 18 18 18 18 18 18 18 18 18 18
22 23 24 24 24 23 23 24 24 23 23 22 21 21 21 20 21 21 20 21 21 22 22 22 22 22 21 21 20 20 19 19 19 18 18 18 18 18 18 18 18 18 18 17
22 23 24 24 25 24 24 23 21 19 19 21 21 22 21 20 21 20 20 21 21 22 22 22 21 21 21 21 20 20 19 19 18 18 18 18 18 18 18 18 18 17 17 17
23 23 24 25 25 25 23 21 20 21 19 20 20 21 20 21 20 20 20 21 21 22 22 22 21 21 20 20 20 20 19 19 18 18 18 18 18 18 18 18 17 17 17 17
22 21 23 23 24 23 22 21 20 21 21 20 20 20 20 21 20 21 21 21 21 22 22 22 21 21 21 20 20 19 19 19 18 18 18 17 17 18 17 17 17 17 17 17
20 21 23 24 24 23 21 20 20 18 19 20 20 20 20 21 20 20 20 20 21 22 22 22 21 21 21 20 20 20 19 19 18 18 18 17 17 17 17 17 17 17 17 17
20 22 23 24 24 23 22 18 17 18 19 20 21 21 20 21 20 19 19 20 21 22 22 22 21 21 21 20 20 19 19 19 18 18 18 17 17 17 17 17 17 17 17 17
20 22 23 23 24 23 21 20 18 16 18 19 20 20 20 20 20 19 19 20 21 22 22 21 21 21 20 20 20 19 19 18 18 18 17 17 17 17 17 17 17 17 17 17
19 19 19 21 22 23 23 20 18 20 19 17 19 20 21 19 19 19 20 21 21 21 22 21 21 20 20 20 19 19 19 18 18 18 18 17 17 17 17 17 17 17 17 17
19 18 20 21 21 22 22 20 19 17 16 16 19 21 20 18 19 20 20 21 21 21 21 21 20 20 20 20 19 19 19 18 18 18 18 17 17 17 17 17 17 16 16 16
19 17 19 20 20 21 22 21 18 18 18 17 18 21 20 19 18 18 20 21 21 21 21 21 20 20 20 19 19 19 19 18 18 18 17 17 17 17 17 16 16 16 16 16
19 18 19 20 21 22 23 22 20 20 19 20 20 20 20 19 18 19 20 20 20 20 21 21 21 20 20 19 19 19 18 18 18 17 17 17 17 16 16 16 16 16 16 16
16 19 19 21 21 22 23 23 21 22 21 21 21 21 19 19 20 19 19 20 19 20 21 21 20 20 20 19 19 19 18 18 17 17 17 16 16 16 16 16 16 15 15 15
15 17 18 19 21 22 22 22 22 22 22 21 22 21 19 18 18 19 20 20 20 21 21 21 21 20 20 19 19 19 18 18 17 17 17 16 16 16 16 15 15 15 15 15
15 15 15 17 20 21 21 21 22 22 22 20 21 20 18 18 20 20 21 21 21 21 21 21 21 20 20 19 19 18 18 17 17 17 16 16 16 16 15 15 15 15 15 15
14 15 15 16 18 20 21 21 21 21 22 20 19 19 18 18 19 19 20 21 22 22 22 21 20 20 20 19 18 18 18 17 17 16 16 16 16 15 15 15 15 15 14 14
13 14 15 15 19 19 20 21 21 22 21 20 18 17 17 18 18 18 21 21 21 21 21 20 20 19 19 18 18 17 17 17 17 16 16 16 15 15 15 15 15 14 14 14
16 15 15 16 18 18 19 19 21 21 21 20 19 18 18 18 19 21 21 21 20 20 20 20 19 19 18 18 17 17 17 17 16 16 15 15 15 15 15 14 14 14 14 13
15 15 15 14 17 18 18 19 19 19 19 20 20 20 19 19 20 20 20 20 19 19 19 19 19 18 18 17 17 17 16 16 15 15 15 15 14 14 14 14 14 14 13 13
13 14 13 14 15 16 16 16 18 18 19 19 20 20 20 19 19 19 19 18 18 18 18 18 18 18 17 17 16 16 16 15 15 15 14 14 14 14 13 13 13 13 13 13
13 12 12 14 14 15 15 16 17 18 19 20 20 20 20 19 18 18 18 17 17 17 17 17 17 17 16 16 16 16 15 15 14 14 14 14 14 13 13 13 13 12 12 12
13 12 13 14 14 15 16 16 17 18 19 19 19 19 19 19 18 18 17 17 17 16 16 16 16 16 16 15 15 15 15 14 14 14 13 13 13 13 12 12 12 11 11 11
11 12 13 13 14 13 15 16 16 17 18 18 18 18 18 18 18 17 17 16 16 16 16 15 15 15 15 15 15 14 14 14 14 13 13 13 12 12 12 11 11 11 11 10
Wind_Speed
3 4 4 7 7 5 2 2 6 7 5 2 3 4 3 2 5 6 6 6 7 7 5 6 7 8 9 9 10 11 11 9 9 6 6 5 5 5 4 5 9 11 11 11
4 4 8 5 4 3 2 4 6 7 4 1 2 4 3 2 5 6 7 8 8 6 6 7 8 8 9 10 10 10 11 11 10 8 6 4 4 3 4 4 7 10 11 11
8 6 3 5 4 3 4 5 6 5 5 5 3 6 4 3 1 1 4 6 7 9 9 8 8 8 9 10 11 11 11 11 10 9 5 4 3 2 2 4 4 6 10 11
6 6 4 4 5 6 5 7 7 4 1 3 3 2 6 4 4 3 4 5 7 7 7 7 8 8 8 8 8 8 9 9 9 9 8 8 7 6 6 5 5 5 8 9
7 5 5 6 7 9 7 1 2 1 3 1 3 2 7 3 4 6 5 6 6 7 7 7 8 7 6 7 7 7 8 8 8 8 9 8 6 5 3 3 5 5 4 6
6 4 5 7 4 6 4 6 7 6 5 1 3 2 6 5 6 5 5 6 6 7 7 6 6 5 5 5 6 7 7 7 8 8 8 8 8 6 5 5 5 5 4 4
4 4 5 5 1 1 5 6 5 5 4 4 4 2 9 7 6 6 6 6 6 7 7 7 7 7 6 6 7 7 8 7 7 8 8 8 8 7 7 6 6 6 4 4
5 7 6 7 9 7 6 10 8 5 5 5 4 5 8 5 5 3 3 4 5 6 6 6 7 7 7 7 7 7 7 6 7 7 7 6 7 6 5 6 5 6 5 5
9 7 5 5 6 11 8 5 8 8 4 0 5 7 9 2 2 0 3 4 5 6 6 6 5 6 6 6 6 7 7 6 6 6 6 6 5 5 5 5 5 4 4 4
10 4 5 3 4 3 7 10 7 7 6 3 5 5 6 6 5 4 5 5 5 5 6 6 5 5 5 5 4 5 5 6 5 5 5 4 4 5 4 4 5 4 4 4
8 6 4 3 5 8 6 6 6 6 6 7 4 7 7 9 8 8 8 7 7 7 8 7 6 5 5 5 5 5 5 5 5 4 4 4 3 3 3 4 4 3 3 4
7 6 5 8 5 4 6 9 9 7 5 6 5 8 6 7 8 8 7 6 6 7 6 6 6 5 6 6 6 5 5 5 5 5 4 4 3 3 3 3 2 3 3 3
8 7 2 7 5 2 4 6 6 7 7 6 6 8 3 2 4 6 7 7 7 7 7 6 6 6 6 6 6 5 5 5 5 5 5 4 3 3 3 2 2 3 3 3
7 6 8 11 9 7 6 6 7 8 6 7 8 9 6 6 7 7 7 7 7 6 7 7 6 5 6 6 6 5 5 5 5 5 5 4 3 3 3 3 2 2 3 3
6 5 7 7 6 6 6 8 9 8 10 10 10 10 12 12 12 10 8 7 8 7 8 8 7 6 6 6 6 5 5 5 5 6 5 4 3 3 3 3 3 3 3 3
3 4 3 3 4 6 5 7 10 7 6 7 5 9 8 5 6 7 8 9 10 9 9 8 8 8 7 7 7 6 6 6 6 5 5 4 4 4 4 4 4 4 4 4
1 5 4 3 2 5 5 8 9 6 6 8 8 9 4 6 11 13 12 11 10 10 9 9 8 8 7 7 7 7 6 6 6 6 5 5 5 5 5 5 5 5 4 5
4 5 4 3 4 6 9 4 6 6 5 6 6 5 8 9 7 6 7 10 10 10 9 8 7 7 6 5 6 6 7 7 6 6 5 5 5 5 5 5 5 5 5 5
6 7 5 4 4 4 5 2 5 6 5 5 6 4 4 6 5 0 4 7 9 9 8 7 6 6 6 7 7 8 7 6 6 5 5 5 5 6 6 6 6 5 6 6
4 4 6 5 5 7 8 3 2 5 3 4 6 7 8 9 6 6 6 8 7 7 6 6 6 7 7 6 7 8 7 6 5 5 5 5 5 6 6 6 6 6 6 7
4 4 5 5 4 7 6 4 2 6 8 4 7 9 11 8 6 4 9 8 8 8 8 8 8 7 6 6 7 7 6 5 4 5 6 5 5 5 6 6 6 7 7 8
5 5 5 6 5 7 3 0 5 6 2 3 6 7 8 6 6 8 9 10 10 10 9 8 8 7 5 6 7 7 5 4 5 6 6 6 5 5 6 7 7 7 8 8
3 5 6 7 7 4 2 3 4 2 2 2 4 6 9 9 7 8 8 9 9 9 8 7 7 7 5 5 5 6 4 4 5 6 6 5 5 5 6 7 7 7 6 7
2 1 2 2 4 4 3 3 2 0 1 1 4 7 8 9 9 10 9 9 8 7 7 6 7 6 4 3 4 5 5 5 6 6 5 6 6 6 6 5 5 5 6 6
3 0 1 2 4 4 4 3 2 2 5 7 7 6 7 10 10 9 9 9 8 7 5 6 6 6 5 4 4 4 5 6 7 6 6 6 6 7 6 6 5 4 3 3
3 5 5 5 4 3 3 2 1 3 5 7 8 7 6 7 9 9 9 7 7 8 6 6 6 6 5 4 4 4 4 6 7 7 6 5 5 6 6 7 7 12 9 11
Wind_Direction
81 87 208 213 191 185 176 265 287 276 291 312 285 288 275 185 177 184 182 178 186 195 177 165 174 177 173 176 177 182 183 177 169 170 176 182 199 194 194 194 197 196 196 194
54 256 230 188 182 188 206 288 291 299 340 12 345 337 302 217 209 200 185 183 186 177 164 164 171 174 180 184 183 181 183 179 178 181 178 180 179 186 195 196 196 198 194 193
184 226 176 160 185 207 243 218 248 275 343 21 43 349 326 306 314 187 185 185 183 184 182 174 174 178 180 187 189 188 186 184 181 172 156 143 126 120 170 200 202 201 195 194
218 242 206 206 220 183 260 230 218 251 15 317 45 291 290 299 300 234 209 187 190 187 176 171 173 176 183 191 185 180 178 181 178 170 174 175 184 193 200 197 201 199 197 198
222 208 186 212 219 177 218 234 179 213 152 27 13 154 283 319 279 256 225 198 192 187 177 174 172 177 180 178 174 174 170 175 176 177 181 182 192 197 182 179 192 200 199 200
225 221 202 207 202 182 172 70 54 46 72 31 296 177 273 251 238 258 229 199 187 176 167 166 162 160 168 172 166 163 167 176 175 178 183 187 190 186 181 191 196 199 199 199
272 260 231 189 202 61 116 92 33 5 15 257 289 229 250 253 251 245 229 203 177 163 160 159 161 170 177 177 173 171 173 181 178 179 188 194 196 193 197 198 198 197 199 201
196 272 236 196 186 181 170 142 156 191 218 272 321 248 257 268 276 260 212 178 162 157 162 169 173 176 179 179 175 178 181 181 179 183 192 195 197 197 202 199 198 202 206 204
181 243 276 230 193 150 140 167 156 131 145 222 287 289 302 291 316 249 170 152 164 164 162 162 163 169 171 175 180 178 176 177 179 187 188 190 191 193 196 193 197 205 207 202
158 217 280 293 107 63 142 141 109 125 146 216 282 278 257 263 241 225 196 179 169 158 152 149 154 159 161 160 155 146 154 164 162 165 175 182 181 183 183 182 190 196 198 195
148 177 284 355 174 170 116 111 111 117 146 154 219 265 228 223 214 203 205 189 173 168 163 157 152 147 142 133 134 140 142 141 143 152 157 157 160 167 172 181 194 195 190 183
159 146 231 258 256 178 163 164 148 151 193 172 173 259 267 228 213 195 191 181 174 165 150 144 142 144 142 142 144 146 142 137 142 144 137 136 137 141 148 158 170 164 167 174
144 136 154 326 333 158 169 164 153 126 120 151 171 258 301 242 204 199 183 178 170 154 139 140 147 156 152 150 150 150 148 148 141 134 131 129 131 132 133 138 144 144 151 156
132 135 170 198 211 189 177 167 152 131 147 186 215 242 269 236 213 207 191 177 159 153 151 149 151 156 152 149 147 145 143 142 138 133 130 134 136 134 133 133 136 145 147 143
127 172 205 220 209 178 187 178 169 172 177 180 220 223 240 221 206 200 186 166 155 158 158 159 161 160 154 146 143 143 140 136 136 135 135 136 131 128 127 122 113 111 116 121
93 162 179 247 219 195 203 196 181 187 180 201 219 249 249 198 165 179 184 174 172 173 168 165 163 163 162 160 156 149 147 144 138 137 134 125 119 117 114 110 105 98 92 90
103 128 126 228 256 129 219 208 185 186 189 175 202 234 183 174 187 191 188 183 182 177 172 172 171 169 168 166 156 152 147 139 136 133 128 125 121 115 113 113 106 100 92 88
156 122 133 151 116 194 236 240 182 176 204 205 217 228 195 196 184 179 179 181 179 172 172 174 168 159 153 146 139 132 129 132 134 132 129 127 127 123 118 115 111 105 98 95
170 143 129 135 171 249 286 219 168 166 224 212 206 205 146 117 92 321 199 181 180 172 164 158 151 144 137 137 136 130 127 127 128 131 131 133 137 136 129 124 120 114 109 101
89 114 123 134 154 211 232 246 196 130 247 233 181 169 152 134 160 222 185 164 151 132 125 126 126 121 128 135 134 133 136 136 141 142 134 128 133 136 134 129 122 112 109 105
96 91 134 153 186 246 251 283 128 160 229 218 180 174 168 179 197 160 137 139 131 123 118 119 120 120 125 132 133 132 133 141 141 129 123 118 118 126 127 120 116 115 113 106
164 151 165 147 170 237 301 88 179 218 254 185 179 175 164 142 112 115 124 127 124 119 112 113 116 112 109 118 127 129 132 134 125 124 123 121 122 129 129 123 119 118 118 113
189 185 182 187 206 247 296 264 287 254 223 205 167 156 144 133 126 119 117 118 117 116 116 115 120 116 106 107 123 130 130 124 126 125 125 123 119 114 122 128 129 125 125 125
295 102 144 252 275 295 310 314 331 312 191 137 131 133 134 128 126 121 120 118 116 114 118 123 123 120 113 106 106 119 131 132 131 129 126 123 120 114 108 110 121 132 138 138
243 194 144 254 283 319 336 346 353 63 95 96 93 102 119 124 126 129 128 128 126 119 116 123 130 132 129 119 110 114 128 133 132 131 129 125 122 120 111 96 81 101 93 134
219 191 179 219 231 210 258 296 17 98 110 113 110 102 103 122 131 130 130 131 127 123 123 123 122 124 124 127 125 122 128 136 135 135 133 130 127 123 120 114 89 63 75 84
Height
1501 1508 1513 1511 1510 1511 1513 1516 1519 1511 1500 1501 1502 1501 1497 1496 1497 1499 1501 1503 1505 1507 1510 1513 1515 1518 1520 1522 1525 1528 1531 1534 1537 1540 1543 1545 1548 1551 1554 1556 1559 1561 1563 1565
1507 1511 1504 1504 1506 1508 1512 1516 1516 1508 1500 1501 1504 1503 1498 1497 1497 1497 1499 1501 1503 1506 1508 1511 1513 1516 1518 1520 1523 1526 1528 1531 1535 1538 1541 1543 1547 1549 1552 1554 1556 1559 1561 1564
1507 1504 1499 1503 1506 1509 1511 1515 1513 1511 1505 1503 1505 1510 1503 1499 1498 1498 1499 1500 1502 1504 1506 1508 1512 1514 1516 1518 1521 1523 1526 1529 1532 1536 1539 1542 1545 1547 1550 1552 1554 1556 1559 1561
1503 1498 1499 1502 1505 1507 1514 1504 1506 1507 1514 1520 1514 1528 1510 1503 1500 1497 1497 1498 1500 1502 1504 1507 1510 1512 1515 1517 1520 1522 1525 1528 1531 1534 1536 1539 1541 1544 1546 1549 1552 1554 1556 1558
1500 1496 1497 1500 1499 1501 1504 1499 1502 1506 1513 1522 1520 1526 1519 1506 1502 1497 1495 1495 1497 1500 1502 1506 1508 1511 1513 1516 1518 1521 1523 1526 1529 1531 1534 1537 1539 1542 1545 1547 1549 1551 1554 1556
1494 1491 1491 1492 1491 1493 1496 1502 1509 1517 1524 1534 1525 1527 1523 1509 1501 1495 1493 1494 1496 1499 1502 1505 1508 1510 1513 1515 1517 1520 1522 1524 1527 1530 1532 1535 1537 1540 1542 1544 1546 1548 1550 1552
1496 1491 1487 1487 1492 1493 1498 1516 1535 1536 1544 1540 1525 1525 1520 1499 1494 1493 1492 1493 1495 1498 1501 1503 1506 1509 1511 1514 1516 1518 1521 1523 1525 1528 1530 1532 1535 1537 1539 1541 1543 1545 1547 1549
1505 1505 1488 1484 1488 1496 1500 1510 1534 1543 1546 1540 1526 1526 1509 1494 1491 1490 1491 1492 1495 1497 1500 1502 1505 1508 1510 1513 1515 1517 1519 1521 1523 1526 1528 1530 1532 1534 1536 1538 1540 1541 1543 1545
1504 1502 1483 1480 1480 1487 1501 1507 1509 1530 1536 1540 1533 1520 1502 1492 1491 1490 1490 1492 1494 1497 1499 1502 1505 1507 1510 1512 1514 1515 1517 1519 1521 1524 1526 1528 1530 1532 1534 1535 1537 1538 1540 1542
1488 1497 1485 1479 1480 1484 1489 1500 1516 1529 1544 1545 1532 1525 1515 1496 1493 1490 1490 1491 1493 1496 1498 1501 1504 1507 1509 1511 1513 1514 1516 1518 1520 1522 1524 1526 1527 1529 1531 1533 1534 1536 1537 1539
1481 1493 1490 1485 1485 1490 1495 1501 1511 1525 1528 1541 1541 1526 1495 1491 1487 1488 1488 1489 1491 1494 1497 1500 1503 1506 1509 1510 1512 1513 1515 1516 1518 1520 1522 1523 1525 1527 1528 1530 1531 1533 1535 1536
1478 1491 1500 1491 1480 1479 1483 1493 1504 1517 1525 1530 1532 1520 1484 1484 1483 1484 1486 1489 1491 1494 1496 1499 1502 1505 1507 1509 1511 1512 1513 1515 1516 1518 1520 1522 1523 1525 1526 1527 1529 1530 1532 1533
1477 1491 1504 1501 1494 1484 1484 1489 1494 1504 1520 1530 1530 1512 1484 1482 1482 1483 1485 1487 1489 1492 1495 1499 1501 1504 1506 1508 1509 1511 1513 1514 1516 1517 1519 1520 1522 1523 1524 1525 1527 1528 1529 1531
1469 1485 1494 1501 1495 1485 1484 1486 1492 1499 1515 1522 1515 1501 1487 1483 1483 1482 1484 1486 1489 1492 1495 1498 1500 1503 1505 1507 1508 1510 1512 1514 1515 1516 1518 1519 1520 1521 1522 1524 1525 1526 1527 1528
1468 1481 1480 1479 1475 1476 1476 1479 1486 1489 1494 1502 1496 1494 1482 1477 1477 1479 1482 1485 1488 1491 1494 1496 1499 1501 1504 1505 1507 1509 1511 1513 1514 1516 1517 1518 1519 1520 1521 1522 1523 1524 1525 1527
1471 1477 1478 1478 1473 1474 1475 1475 1479 1480 1483 1486 1484 1484 1471 1472 1475 1478 1481 1483 1486 1488 1491 1495 1498 1500 1502 1504 1506 1508 1510 1512 1514 1515 1517 1518 1519 1520 1521 1522 1522 1524 1525 1526
1475 1478 1484 1487 1476 1475 1484 1474 1475 1475 1474 1477 1481 1474 1469 1471 1472 1473 1476 1480 1483 1486 1489 1493 1496 1498 1501 1503 1505 1508 1510 1512 1513 1515 1516 1517 1518 1519 1520 1521 1522 1523 1524 1525
1474 1479 1487 1489 1484 1494 1478 1463 1464 1467 1468 1468 1467 1465 1465 1465 1467 1471 1474 1477 1480 1484 1488 1491 1495 1498 1500 1503 1505 1507 1509 1511 1513 1514 1515 1517 1518 1519 1520 1521 1522 1523 1524 1525
1468 1475 1487 1493 1492 1485 1471 1462 1463 1467 1468 1464 1464 1463 1465 1467 1470 1473 1474 1476 1480 1483 1487 1491 1494 1497 1499 1502 1504 1506 1509 1510 1512 1513 1515 1516 1517 1519 1520 1521 1522 1523 1524 1525
1468 1471 1482 1490 1490 1492 1472 1458 1458 1462 1469 1460 1460 1462 1464 1466 1474 1471 1471 1475 1479 1484 1487 1490 1493 1496 1499 1501 1504 1506 1507 1509 1511 1512 1514 1515 1517 1518 1519 1520 1521 1523 1524 1524
1473 1477 1481 1486 1485 1478 1462 1458 1458 1474 1470 1456 1457 1459 1461 1463 1464 1466 1469 1474 1479 1483 1487 1490 1493 1496 1498 1501 1503 1505 1506 1508 1510 1511 1513 1515 1516 1517 1519 1520 1521 1522 1523 1524
1472 1477 1481 1484 1484 1480 1459 1458 1462 1461 1454 1454 1455 1456 1459 1461 1464 1466 1469 1473 1477 1481 1486 1489 1492 1495 1498 1500 1502 1503 1505 1508 1509 1510 1512 1513 1515 1516 1517 1519 1520 1521 1522 1523
1470 1470 1471 1472 1471 1462 1459 1458 1457 1456 1454 1454 1454 1456 1459 1462 1464 1467 1470 1474 1478 1482 1485 1489 1492 1494 1497 1499 1501 1502 1504 1506 1508 1509 1510 1512 1514 1515 1516 1518 1519 1520 1521 1523
1466 1465 1467 1466 1462 1459 1457 1457 1455 1455 1454 1454 1455 1457 1460 1462 1465 1468 1472 1475 1479 1482 1485 1489 1491 1494 1496 1498 1499 1501 1503 1505 1506 1507 1509 1510 1512 1513 1515 1517 1518 1519 1521 1522
1466 1465 1466 1465 1461 1458 1457 1456 1455 1455 1455 1455 1457 1459 1461 1464 1466 1469 1472 1475 1479 1482 1485 1489 1491 1492 1495 1497 1498 1500 1501 1503 1504 1506 1507 1508 1510 1512 1513 1515 1517 1518 1520 1522
1463 1463 1464 1463 1459 1459 1458 1457 1456 1455 1455 1456 1458 1460 1464 1466 1468 1471 1473 1477 1479 1482 1485 1487 1490 1491 1493 1495 1497 1498 1500 1501 1503 1504 1505 1507 1509 1511 1512 1514 1515 1517 1520 1521